Mt. Pocono, PA

10:36 PM EST on December 08, 2019 (GMT -0500)
Pocono Mountains Municipal

Weather History for KMPO - September, 2019

Change the Weather History Date:

Wednesday, September 11, 2019

  Actual Average Record
Temperature  
Mean Temperature 73 °F 61 °F  
Max Temperature 84 °F 70 °F 89 °F (1983)
Min Temperature 62 °F 52 °F 27 °F (1917)
Degree Days  
Heating Degree Days 0 5  
Month to date heating degree days 42  
Since 1 July heating degree days 105  
Cooling Degree Days 8 1  
Month to date cooling degree days 11  
Year to date cooling degree days 307  
Growing Degree Days 23 (Base 50)    
Moisture  
Dew Point 65 °F    
Average Humidity 84    
Maximum Humidity 100    
Minimum Humidity 55    
Precipitation  
Precipitation 0.00 in 0.19 in 3.25 in (1968)
Month to date precipitation 1.76  
Year to date precipitation 32.74  
Sea Level Pressure  
Sea Level Pressure 30.17 in    
Wind  
Wind Speed 9 mph ()    
Max Wind Speed 17 mph    
Max Gust Speed 28 mph    
Visibility 10.0 miles    
Events Rain , Thunderstorm    
T = Trace of Precipitation, MM = Missing Value Source: Averaged Metar Reports

Daily Weather History Graph

Daily Weather History Graph

Search for Another Location

Airport or City:

Astronomy

Sep. 11, 2019 Rise Set
Actual Time 6:37 AM EDT 7:17 PM EDT
Civil Twilight 6:09 AM EDT 7:45 PM EDT
Nautical Twilight 5:37 AM EDT 8:18 PM EDT
Astronomical Twilight 5:03 AM EDT 8:52 PM EDT
Moon 6:30 PM EDT (9/11) 3:56 AM EDT (9/11)
Length of Visible Light 13h 35m
Length of Day
12h 40m
Waxing Gibbous, 94% of the Moon is Illuminated
Sep 11
Waxing Gibbous
Sep 14
Full
Sep 21
Last Quarter
Sep 28
New
Oct 5
First Quarter

Hourly Weather History & Observations

Time (EDT) Temp. Heat Index Dew Point Humidity Pressure Visibility Wind Dir Wind Speed Gust Speed Precip Events Conditions
12:53 AM 64.0 °F - 63.0 °F 96% 30.26 in 10.0 mi SW 9.2 mph - N/A   Clear
1:53 AM 64.0 °F - 63.0 °F 96% 30.24 in 10.0 mi SW 12.7 mph - N/A   Partly Cloudy
2:37 AM 64.0 °F - 64.0 °F 100% 30.26 in 10.0 mi SW 11.5 mph - N/A   Mostly Cloudy
2:53 AM 64.0 °F - 64.0 °F 100% 30.23 in 10.0 mi SW 10.4 mph 17.3 mph N/A   Overcast
3:53 AM 64.0 °F - 64.0 °F 100% 30.23 in 10.0 mi SW 11.5 mph - N/A   Overcast
4:53 AM 64.0 °F - 63.0 °F 96% 30.22 in 10.0 mi SW 15.0 mph 25.3 mph N/A   Overcast
5:22 AM 64.0 °F - 62.1 °F 93% 30.24 in 10.0 mi SW 15.0 mph - N/A   Scattered Clouds
5:53 AM 63.0 °F - 61.0 °F 93% 30.22 in 10.0 mi WSW 9.2 mph - N/A   Clear
6:53 AM 62.1 °F - 61.0 °F 96% 30.23 in 10.0 mi WSW 10.4 mph - N/A   Clear
7:53 AM 64.0 °F - 62.1 °F 93% 30.22 in 10.0 mi WSW 11.5 mph - N/A   Clear
8:53 AM 66.9 °F - 63.0 °F 87% 30.22 in 10.0 mi West 9.2 mph - N/A   Clear
9:53 AM 72.0 °F - 64.9 °F 78% 30.21 in 10.0 mi WSW 10.4 mph - N/A   Clear
10:53 AM 75.0 °F - 64.9 °F 71% 30.19 in 10.0 mi WSW 9.2 mph 18.4 mph N/A   Clear
11:53 AM 79.0 °F - 68.0 °F 69% 30.17 in 10.0 mi West 12.7 mph - N/A   Clear
12:53 PM 81.0 °F 83.3 °F 66.9 °F 62% 30.15 in 10.0 mi WSW 11.5 mph - N/A   Clear
1:53 PM 82.9 °F 85.8 °F 68.0 °F 60% 30.12 in 10.0 mi WSW 12.7 mph 19.6 mph N/A   Clear
2:53 PM 84.0 °F 86.3 °F 66.0 °F 55% 30.11 in 10.0 mi West 17.3 mph 27.6 mph N/A   Clear
3:53 PM 82.9 °F 85.4 °F 66.9 °F 58% 30.10 in 10.0 mi West 10.4 mph - N/A   Mostly Cloudy
4:53 PM 80.1 °F 82.7 °F 68.0 °F 67% 30.08 in 10.0 mi NNW 3.5 mph - 0.00 in   Mostly Cloudy
5:53 PM 73.9 °F - 64.9 °F 73% 30.09 in 10.0 mi West 8.1 mph 17.3 mph 0.00 in   Mostly Cloudy
6:53 PM 73.0 °F - 66.0 °F 79% 30.09 in 10.0 mi West 4.6 mph - 0.00 in   Clear
7:53 PM 72.0 °F - 64.0 °F 76% 30.11 in 10.0 mi Calm Calm - N/A   Mostly Cloudy
8:17 PM 70.0 °F - 64.9 °F 84% 30.14 in 10.0 mi NW 3.5 mph - N/A Thunderstorm Scattered Clouds
8:53 PM 71.1 °F - 66.0 °F 84% 30.12 in 10.0 mi NNW 8.1 mph - 0.00 in Rain , Thunderstorm Light Rain
9:26 PM 70.0 °F - 68.0 °F 93% 30.15 in 10.0 mi NW 6.9 mph - 0.00 in   Mostly Cloudy
9:53 PM 71.1 °F - 66.9 °F 87% 30.11 in 10.0 mi NW 5.8 mph - 0.00 in   Scattered Clouds
10:53 PM 66.9 °F - 66.0 °F 97% 30.09 in 10.0 mi West 3.5 mph - N/A   Scattered Clouds
11:53 PM 66.0 °F - 66.0 °F 100% 30.08 in 10.0 mi SW 3.5 mph - N/A   Clear